KLM145 LOWI-LOWW

Flight info

Callsign KLM145
Flight time 0h 43m
Altitude 29000
Route RTT DCT NEMAL NEMAL2W
Aircraft B739/M-SDE2E3FGHIRWXY/LB1

Departure

Time 2026-04-26 15:48
Airport Innsbruck Airport (LOWI)

Arrival

Time 2026-04-26 16:31
Airport Vienna International Airport (LOWW)
Time Latitude Longitude Altitude Speed Heading
2026-04-26 15:26 47.25824 11.35050 1903 ft 0 kts 171°
2026-04-26 15:37 47.25843 11.35046 1891 ft 3 kts 171°
2026-04-26 15:38 47.25861 11.35044 1892 ft 3 kts 207°
2026-04-26 15:38 47.25872 11.35062 1897 ft 1 kts 262°
2026-04-26 15:38 47.25872 11.35064 1897 ft 0 kts 262°
2026-04-26 15:41 47.25872 11.35063 1903 ft 1 kts 262°
2026-04-26 15:41 47.25864 11.34979 1894 ft 12 kts 262°
2026-04-26 15:41 47.25856 11.34861 1903 ft 11 kts 264°
2026-04-26 15:42 47.25847 11.34746 1894 ft 11 kts 262°
2026-04-26 15:42 47.25835 11.34634 1896 ft 11 kts 261°
2026-04-26 15:42 47.25820 11.34499 1891 ft 17 kts 261°
2026-04-26 15:42 47.25799 11.34302 1900 ft 21 kts 261°
2026-04-26 15:43 47.25775 11.34094 1893 ft 20 kts 261°
2026-04-26 15:43 47.25794 11.33911 1892 ft 14 kts 297°
2026-04-26 15:43 47.25807 11.33880 1897 ft 0 kts 303°
2026-04-26 15:46 47.25823 11.33846 1897 ft 10 kts 304°
2026-04-26 15:46 47.25881 11.33725 1897 ft 17 kts 306°
2026-04-26 15:46 47.25926 11.33569 1899 ft 17 kts 268°
2026-04-26 15:46 47.25920 11.33456 1892 ft 16 kts 263°
2026-04-26 15:47 47.25889 11.33248 1894 ft 15 kts 237°
2026-04-26 15:47 47.25896 11.33175 1900 ft 0 kts 81°
2026-04-26 15:47 47.25896 11.33176 1900 ft 2 kts 81°
2026-04-26 15:48 47.25935 11.33591 1898 ft 82 kts 81°
2026-04-26 15:48 47.26061 11.34770 1902 ft 148 kts 81°
2026-04-26 15:48 47.26222 11.36473 2185 ft 181 kts 84°
2026-04-26 15:48 47.26323 11.38395 2840 ft 197 kts 84°
2026-04-26 15:49 47.26544 11.40445 3484 ft 208 kts 75°
2026-04-26 15:49 47.26928 11.42490 4357 ft 201 kts 76°
2026-04-26 15:49 47.27266 11.44490 5043 ft 207 kts 74°
2026-04-26 15:49 47.27687 11.46643 5367 ft 231 kts 73°
2026-04-26 15:50 47.28153 11.48991 6001 ft 241 kts 72°
2026-04-26 15:50 47.28611 11.51328 7026 ft 233 kts 73°
2026-04-26 15:50 47.29055 11.53630 7814 ft 237 kts 74°
2026-04-26 15:50 47.29506 11.55995 8492 ft 243 kts 75°
2026-04-26 15:51 47.29964 11.58418 9202 ft 248 kts 75°
2026-04-26 15:51 47.30430 11.60896 9797 ft 259 kts 76°
2026-04-26 15:51 47.30914 11.63472 10490 ft 261 kts 76°
2026-04-26 15:51 47.31610 11.65965 11136 ft 268 kts 57°
2026-04-26 15:52 47.32726 11.68297 11398 ft 291 kts 53°
2026-04-26 15:52 47.33972 11.70810 11614 ft 316 kts 53°
2026-04-26 15:52 47.35305 11.73539 11805 ft 340 kts 53°
2026-04-26 15:52 47.36228 11.75460 11980 ft 353 kts 54°
2026-04-26 15:53 47.38162 11.79533 12647 ft 367 kts 54°
2026-04-26 15:53 47.39626 11.82655 13376 ft 371 kts 55°
2026-04-26 15:53 47.40856 11.86048 14053 ft 378 kts 65°
2026-04-26 15:53 47.41877 11.89631 14771 ft 379 kts 66°
2026-04-26 15:54 47.42904 11.93229 15476 ft 381 kts 66°
2026-04-26 15:54 47.43969 11.96830 16131 ft 385 kts 64°
2026-04-26 15:54 47.45089 12.00378 16769 ft 388 kts 63°
2026-04-26 15:54 47.46262 12.03998 17409 ft 391 kts 63°
2026-04-26 15:55 47.47445 12.07630 18050 ft 394 kts 63°
2026-04-26 15:55 47.48638 12.11305 18645 ft 398 kts 63°
2026-04-26 15:55 47.49838 12.15020 19189 ft 401 kts 63°
2026-04-26 15:55 47.51042 12.18765 19644 ft 406 kts 64°
2026-04-26 15:56 47.52256 12.22558 20201 ft 408 kts 63°
2026-04-26 15:56 47.53474 12.26378 20744 ft 411 kts 64°
2026-04-26 15:56 47.54698 12.30225 21229 ft 416 kts 64°
2026-04-26 15:56 47.55934 12.34122 21693 ft 420 kts 64°
2026-04-26 15:57 47.57182 12.38058 22204 ft 424 kts 64°
2026-04-26 15:57 47.58441 12.42037 22697 ft 428 kts 64°
2026-04-26 15:57 47.59692 12.45995 23186 ft 431 kts 64°
2026-04-26 15:57 47.60550 12.48714 23630 ft 431 kts 64°
2026-04-26 15:58 47.62225 12.54030 24423 ft 428 kts 64°
2026-04-26 15:58 47.63480 12.58022 24992 ft 428 kts 64°
2026-04-26 15:58 47.64734 12.62016 25152 ft 426 kts 64°
2026-04-26 15:58 47.65986 12.66008 25171 ft 428 kts 64°
2026-04-26 15:59 47.67239 12.70012 25187 ft 428 kts 63°
2026-04-26 15:59 47.68493 12.74024 25184 ft 428 kts 64°
2026-04-26 15:59 47.69741 12.78025 25187 ft 427 kts 63°
2026-04-26 15:59 47.70991 12.82035 25188 ft 427 kts 64°
2026-04-26 16:00 47.72234 12.86032 25191 ft 427 kts 64°
2026-04-26 16:00 47.73480 12.90045 25195 ft 426 kts 64°
2026-04-26 16:00 47.74720 12.94044 25184 ft 426 kts 64°
2026-04-26 16:00 47.75956 12.98037 25183 ft 426 kts 64°
2026-04-26 16:01 47.77184 13.02009 25188 ft 426 kts 64°
2026-04-26 16:01 47.78416 13.06001 25188 ft 426 kts 64°
2026-04-26 16:01 47.79646 13.09996 25189 ft 426 kts 64°
2026-04-26 16:01 47.80880 13.14009 25182 ft 426 kts 64°
2026-04-26 16:02 47.82110 13.18013 25182 ft 426 kts 64°
2026-04-26 16:02 47.83345 13.22041 25191 ft 426 kts 63°
2026-04-26 16:02 47.84573 13.26054 25186 ft 426 kts 63°
2026-04-26 16:02 47.85384 13.28706 25179 ft 425 kts 63°
2026-04-26 16:03 47.87020 13.34067 25184 ft 425 kts 63°
2026-04-26 16:03 47.88242 13.38077 25191 ft 424 kts 64°
2026-04-26 16:03 47.89460 13.42080 25182 ft 424 kts 64°
2026-04-26 16:03 47.90677 13.46088 25181 ft 424 kts 64°
2026-04-26 16:04 47.91717 13.50205 25159 ft 426 kts 77°
2026-04-26 16:04 47.91910 13.54604 25207 ft 426 kts 90°
2026-04-26 16:04 47.91856 13.59027 25187 ft 427 kts 90°
2026-04-26 16:04 47.91789 13.63455 25185 ft 428 kts 90°
2026-04-26 16:05 47.91737 13.67896 25173 ft 428 kts 90°
2026-04-26 16:05 47.91704 13.72278 25169 ft 429 kts 89°
2026-04-26 16:05 47.91680 13.76723 25181 ft 429 kts 89°
2026-04-26 16:05 47.91657 13.81191 25181 ft 429 kts 89°
2026-04-26 16:06 47.91631 13.85635 25183 ft 429 kts 89°
2026-04-26 16:06 47.91602 13.90096 25186 ft 429 kts 90°
2026-04-26 16:06 47.91570 13.94546 25179 ft 430 kts 90°
2026-04-26 16:06 47.91536 13.98999 25181 ft 430 kts 90°
2026-04-26 16:07 47.91501 14.03398 25184 ft 430 kts 90°
2026-04-26 16:07 47.91465 14.07857 25180 ft 430 kts 90°
2026-04-26 16:07 47.91426 14.12370 25175 ft 430 kts 90°
2026-04-26 16:07 47.91387 14.16763 25175 ft 430 kts 90°
2026-04-26 16:08 47.91345 14.21215 25179 ft 430 kts 90°
2026-04-26 16:08 47.91316 14.24176 25178 ft 430 kts 90°
2026-04-26 16:08 47.91257 14.30133 25184 ft 430 kts 90°
2026-04-26 16:08 47.91211 14.34597 25173 ft 430 kts 90°
2026-04-26 16:09 47.91163 14.39058 25175 ft 430 kts 90°
2026-04-26 16:09 47.91113 14.43511 25177 ft 430 kts 90°
2026-04-26 16:09 47.91061 14.47923 25180 ft 430 kts 90°
2026-04-26 16:09 47.91006 14.52437 25171 ft 429 kts 90°
2026-04-26 16:10 47.90951 14.56825 25184 ft 429 kts 90°
2026-04-26 16:10 47.90894 14.61227 25165 ft 420 kts 89°
2026-04-26 16:10 47.90837 14.65539 24934 ft 413 kts 89°
2026-04-26 16:10 47.90780 14.69782 24594 ft 407 kts 90°
2026-04-26 16:11 47.90722 14.73982 24155 ft 404 kts 90°
2026-04-26 16:11 47.90663 14.78156 23715 ft 401 kts 90°
2026-04-26 16:11 47.90601 14.82296 23197 ft 398 kts 90°
2026-04-26 16:11 47.90538 14.86401 22735 ft 395 kts 90°
2026-04-26 16:12 47.90474 14.90481 22271 ft 391 kts 90°
2026-04-26 16:12 47.90410 14.94510 21818 ft 388 kts 90°
2026-04-26 16:12 47.90279 15.02489 20932 ft 382 kts 89°
2026-04-26 16:13 47.90239 15.04863 20672 ft 380 kts 89°
2026-04-26 16:13 47.90234 15.05150 20644 ft 380 kts 89°
2026-04-26 16:14 47.90166 15.09077 20187 ft 377 kts 89°
2026-04-26 16:14 47.90099 15.12977 19770 ft 375 kts 89°
2026-04-26 16:14 47.90035 15.16553 19370 ft 373 kts 89°
2026-04-26 16:15 47.89966 15.20410 18935 ft 371 kts 89°
2026-04-26 16:15 47.89897 15.24244 18518 ft 370 kts 89°
2026-04-26 16:15 47.89827 15.28020 18036 ft 368 kts 89°
2026-04-26 16:16 47.89681 15.35597 17144 ft 363 kts 89°
2026-04-26 16:16 47.89611 15.39334 16768 ft 359 kts 89°
2026-04-26 16:16 47.89540 15.43024 16426 ft 354 kts 89°
2026-04-26 16:16 47.89470 15.46673 16084 ft 350 kts 89°
2026-04-26 16:17 47.89242 15.50288 15729 ft 352 kts 98°
2026-04-26 16:17 47.88703 15.53841 15408 ft 352 kts 103°
2026-04-26 16:17 47.88083 15.57295 15077 ft 352 kts 103°
2026-04-26 16:17 47.87434 15.60817 14715 ft 352 kts 103°
2026-04-26 16:18 47.86799 15.64326 14380 ft 351 kts 103°
2026-04-26 16:18 47.85564 15.71387 13656 ft 352 kts 102°
2026-04-26 16:19 47.84362 15.78439 12928 ft 349 kts 102°
2026-04-26 16:19 47.83781 15.81870 12583 ft 345 kts 102°
2026-04-26 16:19 47.82806 15.87610 12020 ft 339 kts 102°
2026-04-26 16:20 47.82039 15.92114 11567 ft 338 kts 103°
2026-04-26 16:20 47.80890 15.98865 10916 ft 335 kts 103°
2026-04-26 16:20 47.80319 16.02207 10558 ft 331 kts 103°
2026-04-26 16:21 47.79749 16.05541 10103 ft 334 kts 103°
2026-04-26 16:21 47.79181 16.08855 9914 ft 320 kts 103°
2026-04-26 16:21 47.78645 16.11969 9766 ft 306 kts 103°
2026-04-26 16:21 47.78106 16.15102 9182 ft 313 kts 103°
2026-04-26 16:22 47.77564 16.18244 8772 ft 314 kts 103°
2026-04-26 16:22 47.77057 16.21379 8464 ft 310 kts 95°
2026-04-26 16:22 47.77217 16.24492 8134 ft 298 kts 68°
2026-04-26 16:22 47.78034 16.27254 7861 ft 288 kts 56°
2026-04-26 16:23 47.78999 16.29802 7583 ft 285 kts 54°
2026-04-26 16:23 47.79997 16.32339 7305 ft 284 kts 53°
2026-04-26 16:23 47.80988 16.34863 7026 ft 281 kts 54°
2026-04-26 16:23 47.81977 16.37405 6736 ft 279 kts 53°
2026-04-26 16:24 47.82929 16.39874 6465 ft 278 kts 54°
2026-04-26 16:24 47.83888 16.42372 6179 ft 277 kts 54°
2026-04-26 16:24 47.84837 16.44859 5905 ft 275 kts 54°
2026-04-26 16:24 47.85773 16.47321 5639 ft 272 kts 55°
2026-04-26 16:25 47.86701 16.49766 5345 ft 269 kts 56°
2026-04-26 16:25 47.87613 16.52175 5083 ft 265 kts 56°
2026-04-26 16:25 47.88209 16.53750 4923 ft 263 kts 56°
2026-04-26 16:25 47.89397 16.56889 4551 ft 257 kts 56°
2026-04-26 16:26 47.89973 16.58418 4373 ft 252 kts 56°
2026-04-26 16:26 47.90810 16.60651 4150 ft 240 kts 56°
2026-04-26 16:26 47.91580 16.62704 4019 ft 215 kts 54°
2026-04-26 16:26 47.92351 16.64501 3826 ft 194 kts 38°
2026-04-26 16:27 47.93484 16.65157 3741 ft 176 kts 354°
2026-04-26 16:27 47.94718 16.64828 3520 ft 180 kts 353°
2026-04-26 16:27 47.95923 16.64586 3266 ft 172 kts 349°
2026-04-26 16:27 47.97042 16.64158 3030 ft 160 kts 345°
2026-04-26 16:28 47.98066 16.63719 2851 ft 144 kts 345°
2026-04-26 16:28 47.98982 16.63327 2651 ft 134 kts 346°
2026-04-26 16:28 47.99879 16.62947 2476 ft 134 kts 347°
2026-04-26 16:28 48.00764 16.62572 2288 ft 131 kts 347°
2026-04-26 16:29 48.01640 16.62201 2129 ft 131 kts 347°
2026-04-26 16:29 48.02520 16.61829 1936 ft 132 kts 345°
2026-04-26 16:29 48.03401 16.61454 1762 ft 132 kts 345°
2026-04-26 16:29 48.04280 16.61080 1581 ft 130 kts 346°
2026-04-26 16:30 48.05152 16.60712 1395 ft 132 kts 347°
2026-04-26 16:30 48.06044 16.60335 1222 ft 134 kts 346°
2026-04-26 16:30 48.06939 16.59963 1019 ft 131 kts 347°
2026-04-26 16:30 48.07822 16.59580 828 ft 136 kts 346°
2026-04-26 16:31 48.08726 16.59192 683 ft 133 kts 345°
2026-04-26 16:31 48.09589 16.58828 620 ft 118 kts 346°
2026-04-26 16:31 48.10236 16.58554 613 ft 75 kts 344°
2026-04-26 16:31 48.10579 16.58408 611 ft 16 kts 340°
2026-04-26 16:32 48.10675 16.58341 615 ft 15 kts 328°
2026-04-26 16:32 48.10757 16.58240 613 ft 18 kts 317°
2026-04-26 16:32 48.10796 16.58184 611 ft 4 kts 314°
2026-04-26 16:32 48.10836 16.58124 609 ft 12 kts 315°
2026-04-26 16:33 48.10898 16.58032 616 ft 15 kts 316°
2026-04-26 16:33 48.10972 16.57923 609 ft 15 kts 313°
2026-04-26 16:33 48.11040 16.57814 612 ft 14 kts 318°
2026-04-26 16:33 48.11125 16.57755 614 ft 13 kts 334°
2026-04-26 16:34 48.11178 16.57648 614 ft 13 kts 298°
2026-04-26 16:34 48.11218 16.57531 611 ft 12 kts 296°
2026-04-26 16:34 48.11257 16.57417 620 ft 12 kts 297°
2026-04-26 16:34 48.11296 16.57305 617 ft 12 kts 295°
2026-04-26 16:35 48.11330 16.57196 616 ft 11 kts 296°
2026-04-26 16:35 48.11365 16.57091 617 ft 11 kts 296°
2026-04-26 16:35 48.11396 16.56988 611 ft 11 kts 288°
2026-04-26 16:35 48.11433 16.56894 609 ft 10 kts 323°
2026-04-26 16:36 48.11500 16.56896 608 ft 6 kts 23°
2026-04-26 16:36 48.11524 16.56911 608 ft 4 kts 23°
2026-04-26 16:36 48.11549 16.56921 613 ft 4 kts
2026-04-26 16:36 48.11573 16.56912 615 ft 4 kts 335°
2026-04-26 16:37 48.11597 16.56863 611 ft 8 kts 300°
2026-04-26 16:37 48.11628 16.56777 613 ft 10 kts 294°
2026-04-26 16:37 48.11655 16.56688 616 ft 9 kts 295°
2026-04-26 16:37 48.11682 16.56602 612 ft 9 kts 295°
2026-04-26 16:38 48.11701 16.56545 610 ft 0 kts 296°
2026-04-26 16:38 48.11704 16.56536 615 ft 5 kts 296°
2026-04-26 16:39 48.11729 16.56460 612 ft 8 kts 296°
2026-04-26 16:39 48.11753 16.56385 617 ft 8 kts 290°
2026-04-26 16:39 48.11753 16.56305 614 ft 8 kts 255°
2026-04-26 16:39 48.11723 16.56242 608 ft 7 kts 222°
2026-04-26 16:40 48.11691 16.56186 614 ft 7 kts 242°
2026-04-26 16:40 48.11686 16.56114 613 ft 7 kts 287°
2026-04-26 16:40 48.11703 16.56046 617 ft 7 kts 292°
2026-04-26 16:40 48.11723 16.55983 618 ft 7 kts 295°
2026-04-26 16:41 48.11745 16.55921 611 ft 7 kts 301°
2026-04-26 16:41 48.11766 16.55861 615 ft 7 kts 303°
2026-04-26 16:41 48.11807 16.55842 618 ft 7 kts
2026-04-26 16:41 48.11852 16.55858 608 ft 6 kts 14°
2026-04-26 16:42 48.11895 16.55871 615 ft 6 kts 359°
2026-04-26 16:42 48.11927 16.55832 608 ft 6 kts 298°
2026-04-26 16:42 48.11936 16.55803 621 ft 0 kts 295°